Location: Beekmeers
(50.8953°N, 3.6968°E)
Time: 02:54:21
(UTC+00:00)

Cosmos 2208 Rocket - Pass Details

Date: 23 May 2024
Orbit: 753 x 803 km, 74.0° (Epoch: 21 June)

Event Time Altitude Azimuth Distance (km) Brightness Sun altitude
Rises 02:54:38 0° 335° (NNW) 3,284 7.6 -6.9°
Reaches altitude 10° 02:57:02 10° 334° (NNW) 2,343 6.8 -6.6°
Maximum altitude 03:02:22 84° 247° (WSW) 782 4.0 -6.0°
Drops below altitude 10° 03:07:35 10° 160° (SSE) 2,294 6.3 -5.4°
Sets 03:09:56 0° 160° (SSE) 3,210 7.0 -5.1°
